Regional Weather Roundup
Issued by NWS

Home | Current Version | Previous Version | Graphics & Text | Print | Product List | Glossary On
Versions: 1 2 3 4 5 6 7 8 9 10 11 12 13 14 15 16 17 18 19 20 21 22 23 24 25 26 27 28 29 30 31 32 33 34 35 36 37 38 39 40 41 42 43 44 45 46 47 48 49 50
000
ASUS45 KCYS 222010
RWRWY

WYOMING REGIONAL WEATHER ROUNDUP
NATIONAL WEATHER SERVICE CHEYENNE WY
100 PM MST SUN JAN 22 2017

NOTE:  "FAIR" INDICATES FEW OR NO CLOUDS BELOW 12,000 FEET
WITH NO SIGNIFICANT WEATHER AND/OR OBSTRUCTIONS TO VISIBILITY.

WYZ001-222100-
YELLOWSTONE NATIONAL PARK

CITY           SKY/WX    TMP DP  RH WIND       PRES   REMARKS
LK YELLOWSTONE   N/A     23  17  78 VRB3      29.79F
W YELLOWSTONE  NOT AVBL

$$
WYZ002>013-054>058-071-098>099-222100-
NORTHERN WYOMING

CITY           SKY/WX    TMP DP  RH WIND       PRES   REMARKS
JACKSON        PTSUNNY   28  19  69 SW9       29.82F WCI  20
CODY           FAIR      39  13  34 SW10      29.80F WCI  32
GREYBULL       FAIR      22  14  71 CALM      29.87F
WORLAND        FAIR      25  18  74 CALM      29.85F
SHERIDAN       FAIR      39  22  50 VRB6      29.82F WCI  35
BUFFALO        FAIR      34  20  56 S12       29.81F WCI  25
GILLETTE       FAIR      40  21  46 W6        29.83F
HULETT         FAIR      34  23  64 SW12      29.84S WCI  25
NEWCASTLE      FAIR      30  23  74 CALM      29.88F

$$
WYZ014>020-022>026-101>103-222100-
CENTRAL WYOMING

CITY           SKY/WX    TMP DP  RH WIND       PRES   REMARKS
BIG PINEY      CLOUDY    12   8  84 E7        29.89F WCI   1
PINEDALE       FAIR      19  12  73 S5        29.90F WCI  13
DUBOIS         NOT AVBL
LANDER         FAIR      30  12  47 NW5       29.82F WCI  25
RIVERTON       FAIR     N/A N/A N/A NE3       29.85F
CASPER         FAIR      35  16  45 SW21G33   29.88F WCI  24
DOUGLAS        FAIR      41  12  30 W16       29.87F

$$
WYZ021-027>030-104>119-222100-
SOUTHERN WYOMING

CITY           SKY/WX    TMP DP  RH WIND       PRES   REMARKS
EVANSTON       PTSUNNY   25  12  58 CALM      29.83F
ROCK SPRINGS   FAIR      25  15  66 MISG      29.91F
RAWLINS        FAIR      28  13  53 SW17      29.93F WCI  16
LARAMIE        FAIR      27  14  58 SW5       29.88F WCI  22
CHEYENNE       FAIR      37   8  30 W25G35    29.89F WCI  25
TORRINGTON     FAIR      44  14  29 W16G28    29.88F

$$



USA.gov is the U.S. government's official web portal to all federal, state and local government web resources and services.